Preview of NWS' New Version of Forecast
This preview is not operational and should not be used for support decisions.

Regional Weather Roundup (RWR)

Issued by National Weather Service (NWS)

                            
000
ASUS46 KSEW 251010
RWRWA 

WASHINGTON REGIONAL WEATHER ROUNDUP
NATIONAL WEATHER SERVICE SEATTLE WA
300 AM PDT TUE JUN 25 2019

NOTE:"FAIR" INDICATES FEW OR NO CLOUDS BELOW 12,000 FEET WITH NO 
SIGNIFICANT WEATHER AND/OR OBSTRUCTIONS TO VISIBILITY.

WAZ507-509-555>559-251100-
SEATTLE, TACOMA, EVERETT, AND VICINITY
  
CITY           SKY/WX    TMP DP  RH WIND       PRES   REMARKS
EVERETT        CLEAR     50  46  86 CALM      29.91F                  
BOEING FIELD   CLEAR     55  45  68 CALM      29.91F                  
RENTON         CLEAR     54  50  86 CALM      29.91S                  
SEATAC AIRPORT CLEAR     55  47  74 N9        29.91F                  
JBLM-MCCHORD   CLEAR     47  47 100 S3        29.91S                  
PUYALLUP       FAIR      46  46 100 CALM      29.90F                  
BREMERTON      CLEAR     47  44  90 CALM      29.91F                  
JBLM-FT LEWIS  CLEAR     46  46  99 SE3       29.90F                  
TACOMA NARROWS CLEAR     51  45  79 N7        29.90F                  
$$
 
WAZ001-503-506-510-514-515-251100-
NORTH INTERIOR
  
CITY           SKY/WX    TMP DP  RH WIND       PRES   REMARKS
BELLINGHAM     CLEAR     50  46  86 CALM      29.91S                  
FRIDAY HARBOR  CLEAR     46  44  93 CALM      29.91F                  
EASTSOUND      CLEAR     54  48  82 CALM      29.89F                  
PORT ANGELES   CLEAR     46  43  89 SW7       29.92F                  
EDIZ HOOK      FAIR      50  46  85 SW6       29.91F                  
PORT TOWNSEND  FAIR      43  41  93 CALM      29.91S                  
NAS WHIDBEY    PTCLDY    49  44  83 E3        29.95F                  
ARLINGTON      CLEAR     45  44  97 CALM      29.92F                  
BURLINGTON     CLEAR     46  46 100 CALM      29.92S                  
$$
 
WAZ020-022-039-040-504-511-512-251100-
SOUTHWEST INTERIOR
  
CITY           SKY/WX    TMP DP  RH WIND       PRES   REMARKS
SHELTON        CLEAR     44  40  85 CALM      29.89F                  
OLYMPIA        CLEAR     44  42  93 S3        29.91S                  
CHEHALIS       FAIR      46  46 100 CALM      29.91S                  
KELSO          PTCLDY    49  47  93 CALM      29.91F                  
VANCOUVER      MOCLDY    53  48  83 W3        29.89S                  
SCAPPOOSE, OR  MOCLDY    48  45  89 W3        29.89S                  
PORTLAND, OR   CLOUDY    58  48  69 NW5       29.89S                  
$$
 
WAZ021-516-517-251100-
WASHINGTON COAST
  
CITY           SKY/WX    TMP DP  RH WIND       PRES   REMARKS
FORKS          CLEAR     45  43  93 CALM      29.90F                  
HOQUIAM        PTCLDY    48  47  96 CALM      29.91F                  
ASTORIA, OR    CLOUDY    52  49  89 S3        29.90F                  
$$
 
WAZ019-023-024-040-567>569-251100-
CASCADE MOUNTAINS AND COLUMBIA GORGE
  
CITY           SKY/WX    TMP DP  RH WIND       PRES   REMARKS
STAMPEDE PASS  PTCLDY    41  38  89 W5        29.91F                  
TROUTDALE, OR  CLOUDY    54  48  80 E5        29.89S                  
HOOD RIVER, OR PTSUNNY   50  43  76 S3        29.88S                  
THE DALLES, OR MOCLDY    54  41  61 CALM      29.86S                  
$$

WAZ026-027-041>044-520-521-251100-
EAST SLOPES
  
CITY           SKY/WX    TMP DP  RH WIND       PRES   REMARKS
OMAK           CLEAR     56  44  64 N10       29.86S                  
WENATCHEE      CLEAR     55  38  52 NW7       29.85S                  
ELLENSBURG     CLEAR     53  40  61 NW13      29.84F                  
YAKIMA         MOCLDY    59  39  47 N8        29.84S                  
SUNNYSIDE ARPT PTSUNNY   50  46  86 E3        29.83                   
YAKIMA TC      FAIR      54  37  51 E10       29.83S                  
$$

WAZ028-034-035-251100-
COLUMBIA BASIN
  
CITY           SKY/WX    TMP DP  RH WIND       PRES   REMARKS
EPHRATA        PTCLDY    59  35  40 N10       29.82S                  
MOSES LAKE     MOCLDY    54  41  61 N7        29.82S                  
PASCO          CLOUDY    64  41  42 S13       29.82S                  
RICHLAND ARPT  CLOUDY    61  45  54 CALM      29.82                   
HERMISTON, OR  MOCLDY    60  35  39 SW3       29.83F                  
$$

WAZ036>038-251100-
NORTHEAST WASHINGTON
  
CITY           SKY/WX    TMP DP  RH WIND       PRES   REMARKS
SPOKANE GEIGER PTCLDY    53  43  68 NE7       29.87S                  
SPOKANE FELTS  CLEAR     50  45  83 CALM      29.88S                  
FAIRCHILD AFB  PTCLDY    50  45  84 NE7       29.87S                  
COEURDALENE,ID CLEAR     49  45  86 E7        29.89S                  
DEER PARK      CLEAR     47  43  86 NE7       29.89R                  
$$

WAZ029>033-251100-
SOUTHEAST WASHINGTON
  
CITY           SKY/WX    TMP DP  RH WIND       PRES   REMARKS
PULLMAN        PTCLDY    45  35  68 CALM      29.88F                  
LEWISTON, ID   CLEAR     53  37  54 SE6       29.85S                  
WALLA WALLA    CLOUDY    59  37  44 S7        29.85F                  
PENDLETON, OR  CLOUDY    58  31  35 CALM      29.85F                  
$$